loading
|

WESTFORD NEEDLES, 3255

Orbit data source: Space-Track

WESTFORD NEEDLES, 3255 is space debris originally from a launch on Thu, 09 May 1963 UTC launched from the Air Force Western Test Range (AFWTR). Debris objects in space refer to the collection of defunct objects orbiting the Earth. Examples of debris include non-operational satellites, rocket bodies, and fragments generated from explosions, collisions, or faulty payload assembly.

Loading next visibility...
Loading greatness...
WESTFORD NEEDLES details
Identifier
3255, 1963-014BV
Orbit
Active
Last TLE update2 days ago
Origin
Flag of USUSAF SSD (US)
ManufacturerUnknown
MissionSpacecraft
Bus & MotorUnknown bus, Unknown motor
MassUnknown
Launch date (UTC)
1963-05-09 (61 years ago)
Launch vehicleUnknown
Launch site
Air Force Western Test Range (AFWTR)
Object type
Payload
Rocket body
Debris
Shape & HBRUnknown
Radar Cross SectionMedium (>0.1 m² and <1 m²)

Expand to show TLE details & history

TLE from 2 days ago
0 WESTFORD NEEDLES
1 03255U 63014BV  24283.27470879  .00000124  00000-0  56094-1 0  9994
2 03255  87.3393 227.5350 0053772 275.9389  83.5339  8.66734274328057
Epoch: 2024-10-09T06:35Z
Definitive object data (Epoch: 2024-10-09T06:35:34.839Z)
Latitude-0.00006°
Longitude110.26388°
Altitude3,629.284 km
Speed6.314 km/s
True Right ascension15h 10m 08s
True Declination0° 00' 00"
Sunlit
Object was in daylight at TLE epoch
Predictive object data (real-time)
Latitude-66.58245°
Longitude-63.76264°
Altitude3,610.297 km
Speed6.334 km/s
Apparent Right ascension04h 41m 38s
Apparent Declination-57° 02' 53"
Sunlit
Object is in daylight
Predictive observer data (real-time)
Local Sidereal Time17:36:14
Azimuth157.136° SSE
Elevation-70.707°
Doppler factor1
Orbital elements
Apogee3,684.513 km
Perigee3,576.874 km
Semi-major axis10,008.83 km
Eccentricity0.0053772
Inclination87.3393°
RAAN227.535°
Arg. of periapsis275.9389°
True anomaly84.14661°
Mean anomaly83.5339°
Eccentric anomaly83.84021°
Mean motion2.16755 °/min
BSTAR0.056094
Period166.09 mins
No data available

WESTFORD NEEDLES Visibility forecast

Observer location: 39.9160978°, -105.1181434

WESTFORD NEEDLES is not visible in the next 10 days
Span
Click to sort rows by Start time (UTC) header in descending order
Start Az.
Max El. time (UTC)
Max El. Az.
Max El.
End time (UTC)
End Az.